Time,TemperatureF,DewpointF,PressureIn,WindDirection,WindDirectionDegrees,WindSpeedMPH,WindSpeedGustMPH,Humidity,HourlyPrecipIn,Conditions,Clouds,dailyrainin,SoftwareType,DateUTC
2014-09-21 00:04:00,62.5,57.3,29.97,NW,313,2.0,3.0,83,0.00,,OVC050,0.00,VWS V12.08,2014-09-21 04:04:00,
2014-09-21 00:09:00,62.5,57.3,29.97,NNW,330,2.0,5.0,83,0.00,,OVC050,0.00,VWS V12.08,2014-09-21 04:09:00,
2014-09-21 00:14:00,62.7,57.1,29.97,NW,318,1.0,3.0,82,0.00,,OVC050,0.00,VWS V12.08,2014-09-21 04:14:00,
2014-09-21 00:19:00,62.7,57.1,29.97,SW,234,1.0,6.0,82,0.00,,OVC050,0.00,VWS V12.08,2014-09-21 04:19:00,
2014-09-21 00:24:00,62.7,57.5,29.97,SW,236,1.0,2.0,83,0.00,,OVC050,0.00,VWS V12.08,2014-09-21 04:24:00,
2014-09-21 00:29:00,62.7,57.5,29.96,NNW,337,1.0,1.0,83,0.00,,OVC050,0.00,VWS V12.08,2014-09-21 04:29:00,
2014-09-21 00:34:00,62.7,57.5,29.96,NNW,337,0.0,2.0,83,0.00,,OVC050,0.00,VWS V12.08,2014-09-21 04:34:00,
2014-09-21 00:39:00,62.5,57.3,29.96,SW,229,1.0,3.0,83,0.00,,OVC050,0.00,VWS V12.08,2014-09-21 04:39:00,
2014-09-21 00:44:00,62.7,57.5,29.96,WNW,295,0.0,3.0,83,0.00,,OVC050,0.00,VWS V12.08,2014-09-21 04:44:00,
2014-09-21 00:49:00,62.7,57.5,29.96,WSW,257,4.0,8.0,83,0.00,,OVC050,0.00,VWS V12.08,2014-09-21 04:49:00,
2014-09-21 00:54:00,62.7,57.5,29.96,SW,233,0.0,2.0,83,0.00,,OVC050,0.00,VWS V12.08,2014-09-21 04:54:00,
2014-09-21 00:55:00,62.5,57.3,29.96,SW,233,0.0,1.0,83,0.00,,OVC050,0.00,VWS V12.08,2014-09-21 04:55:00,
2014-09-21 01:00:00,62.5,56.9,29.96,NW,320,2.0,5.0,82,0.00,,OVC050,0.00,VWS V12.08,2014-09-21 05:00:00,
2014-09-21 01:05:00,62.5,56.9,29.96,WSW,239,5.0,6.0,82,0.00,,OVC050,0.00,VWS V12.08,2014-09-21 05:05:00,
2014-09-21 01:10:00,62.4,56.8,29.96,WSW,243,0.0,1.0,82,0.00,,OVC050,0.00,VWS V12.08,2014-09-21 05:10:00,
2014-09-21 01:15:00,62.2,56.6,29.96,SW,223,6.0,8.0,82,0.00,,OVC050,0.00,VWS V12.08,2014-09-21 05:15:00,
2014-09-21 01:20:00,62.2,56.6,29.96,SW,222,2.0,5.0,82,0.00,,OVC050,0.00,VWS V12.08,2014-09-21 05:20:00,
2014-09-21 01:25:00,62.1,56.9,29.96,WSW,244,0.0,2.0,83,0.00,,OVC050,0.00,VWS V12.08,2014-09-21 05:25:00,
2014-09-21 01:30:00,61.9,56.7,29.96,WSW,244,0.0,0.0,83,0.00,,OVC050,0.00,VWS V12.08,2014-09-21 05:30:00,
2014-09-21 01:35:00,61.6,56.7,29.96,NW,326,0.0,2.0,84,0.00,,OVC050,0.00,VWS V12.08,2014-09-21 05:35:00,
2014-09-21 01:40:00,61.4,56.5,29.96,WSW,251,3.0,3.0,84,0.00,,OVC046,0.00,VWS V12.08,2014-09-21 05:40:00,
2014-09-21 01:45:00,61.1,56.6,29.95,SW,219,3.0,6.0,85,0.00,,OVC046,0.00,VWS V12.08,2014-09-21 05:45:00,
2014-09-21 01:50:00,60.8,56.3,29.95,SW,219,1.0,2.0,85,0.00,,OVC046,0.00,VWS V12.08,2014-09-21 05:50:00,
2014-09-21 01:55:00,60.6,56.1,29.95,SW,234,1.0,2.0,85,0.00,,OVC046,0.00,VWS V12.08,2014-09-21 05:55:00,
2014-09-21 02:00:00,60.5,56.0,29.94,SW,234,0.0,3.0,85,0.00,,OVC046,0.00,VWS V12.08,2014-09-21 06:00:00,
2014-09-21 02:05:00,60.3,56.1,29.94,SW,234,0.0,0.0,86,0.00,,OVC046,0.00,VWS V12.08,2014-09-21 06:05:00,
2014-09-21 02:10:00,60.2,56.0,29.94,WSW,241,0.0,0.0,86,0.00,,OVC046,0.00,VWS V12.08,2014-09-21 06:10:00,
2014-09-21 02:15:00,60.0,55.8,29.93,WSW,237,0.0,3.0,86,0.00,,OVC046,0.00,VWS V12.08,2014-09-21 06:15:00,
2014-09-21 02:20:00,59.7,55.8,29.93,WSW,239,0.0,2.0,87,0.00,,OVC046,0.00,VWS V12.08,2014-09-21 06:20:00,
2014-09-21 02:25:00,59.2,55.7,29.93,WSW,237,1.0,2.0,88,0.00,,OVC046,0.00,VWS V12.08,2014-09-21 06:25:00,
2014-09-21 02:30:00,59.1,55.5,29.92,WSW,239,0.0,0.0,88,0.00,,OVC046,0.00,VWS V12.08,2014-09-21 06:30:00,
2014-09-21 02:35:00,58.9,55.4,29.92,WSW,237,0.0,0.0,88,0.00,,OVC046,0.00,VWS V12.08,2014-09-21 06:35:00,
2014-09-21 02:41:00,58.8,55.3,29.92,WSW,244,0.0,0.0,88,0.00,,OVC060,0.00,VWS V12.08,2014-09-21 06:41:00,
2014-09-21 02:46:00,58.5,55.3,29.92,WSW,244,0.0,0.0,89,0.00,,OVC060,0.00,VWS V12.08,2014-09-21 06:46:00,
2014-09-21 02:51:00,58.3,55.1,29.92,WSW,244,0.0,0.0,89,0.00,,OVC060,0.00,VWS V12.08,2014-09-21 06:51:00,
2014-09-21 02:56:00,57.9,55.0,29.92,WSW,244,0.0,0.0,90,0.00,,OVC060,0.00,VWS V12.08,2014-09-21 06:56:00,
2014-09-21 03:01:00,57.4,54.8,29.91,WSW,244,0.0,0.0,91,0.00,,OVC060,0.00,VWS V12.08,2014-09-21 07:01:00,